Estherville, IA

1:45 AM CDT on August 25, 2016 (GMT -0500)
Estherville Municipal

Weather History for KEST - May, 2013

Change the Weather History Date:

Monday, May 13, 2013

  Actual Average Record
Temperature  
Mean Temperature 60 °F 58 °F  
Max Temperature 83 °F 70 °F 90 °F (2007)
Min Temperature 37 °F 45 °F 25 °F (1997)
Degree Days  
Heating Degree Days 5 8  
Month to date heating degree days 209 132  
Since 1 July heating degree days 7781 7593  
Cooling Degree Days 0 1  
Month to date cooling degree days 0 7  
Year to date cooling degree days 0 9  
Growing Degree Days 10 (Base 50)    
Moisture  
Dew Point 36 °F    
Average Humidity 45    
Maximum Humidity 64    
Minimum Humidity 26    
Precipitation  
Precipitation 0.00 in 0.13 in 0.53 in (1980)
Month to date precipitation 1.01 1.63  
Sea Level Pressure  
Sea Level Pressure 29.94 in    
Wind  
Wind Speed 16 mph (SSW)    
Max Wind Speed 33 mph    
Max Gust Speed 40 mph    
Visibility 10 miles    
Events      
T = Trace of Precipitation, MM = Missing Value Source: NWS Daily Summary

Daily Weather History Graph

Daily Weather History Graph

Search for Another Location

Airport or City:

Trip Planner

Search our weather history database for the weather conditions in past years. The results will help you decide how hot, cold, wet, or windy it might be!

Date:

Astronomy

May. 13, 2013 Rise Set
Actual Time 5:56 AM CDT 8:34 PM CDT
Civil Twilight 5:23 AM CDT 9:07 PM CDT
Nautical Twilight 4:42 AM CDT 9:48 PM CDT
Astronomical Twilight 3:56 AM CDT 10:36 PM CDT
Moon 8:42 AM CDT (5/13) 11:44 PM CDT (5/13)
Length of Visible Light 15h 43m
Length of Day
14h 38m
Waxing Crescent, 12% of the Moon is Illuminated
May 13
Waxing Crescent
May 17
First Quarter
May 24
Full
May 31
Last Quarter
Jun 8
New

Hourly Weather History & Observations

Time (CDT) Temp. Windchill Dew Point Humidity Pressure Visibility Wind Dir Wind Speed Gust Speed Precip Events Conditions
12:52 AM 41.0 °F - 24.1 °F 51% 30.12 in 10.0 mi Calm Calm - N/A   Clear
1:52 AM 39.9 °F 37.8 °F 27.0 °F 60% 30.12 in 10.0 mi South 3.5 mph - N/A   Clear
2:52 AM 42.1 °F 37.7 °F 26.1 °F 53% 30.11 in 10.0 mi South 6.9 mph - N/A   Clear
3:52 AM 42.1 °F 37.7 °F 25.0 °F 51% 30.10 in 10.0 mi South 6.9 mph - N/A   Clear
4:52 AM 37.0 °F 30.4 °F 26.1 °F 65% 30.09 in 10.0 mi South 9.2 mph - N/A   Clear
5:52 AM 39.0 °F 33.4 °F 26.1 °F 60% 30.08 in 10.0 mi South 8.1 mph - N/A   Clear
6:52 AM 39.9 °F 35.8 °F 28.9 °F 65% 30.08 in 10.0 mi South 5.8 mph - N/A   Clear
7:52 AM 50.0 °F - 30.9 °F 48% 30.07 in 10.0 mi South 8.1 mph - N/A   Clear
8:52 AM 55.9 °F - 30.0 °F 37% 30.06 in 10.0 mi South 18.4 mph - N/A   Clear
9:52 AM 61.0 °F - 35.1 °F 38% 30.03 in 10.0 mi South 18.4 mph - N/A   Partly Cloudy
10:52 AM 63.0 °F - 39.0 °F 41% 30.01 in 10.0 mi South 18.4 mph - N/A   Mostly Cloudy
11:52 AM 66.9 °F - 41.0 °F 39% 29.98 in 10.0 mi South 20.7 mph 28.8 mph N/A   Partly Cloudy
12:52 PM 72.0 °F - 43.0 °F 35% 29.93 in 10.0 mi South 24.2 mph 32.2 mph N/A   Clear
1:52 PM 77.0 °F - 44.1 °F 31% 29.88 in 10.0 mi South 26.5 mph 35.7 mph N/A   Clear
3:52 PM 82.0 °F - 44.1 °F 26% 29.80 in 10.0 mi SW 27.6 mph 36.8 mph N/A   Clear
4:52 PM 81.0 °F - 43.0 °F 26% 29.79 in 10.0 mi SSW 26.5 mph 34.5 mph N/A   Clear
5:52 PM 82.9 °F - 44.1 °F 25% 29.78 in 10.0 mi SSW 26.5 mph 34.5 mph N/A   Clear
7:52 PM 79.0 °F - 44.1 °F 29% 29.74 in 10.0 mi SSW 17.3 mph - N/A   Clear
8:52 PM 73.0 °F - 45.0 °F 37% 29.73 in 10.0 mi South 10.4 mph - N/A   Clear
9:52 PM 73.0 °F - 43.0 °F 34% 29.73 in 10.0 mi SSW 18.4 mph - N/A   Clear
10:52 PM 71.1 °F - 43.0 °F 36% 29.73 in 10.0 mi SW 17.3 mph - N/A   Clear
11:52 PM 66.9 °F - 44.1 °F 44% 29.73 in 10.0 mi WSW 13.8 mph - N/A   Clear